Weather History for Asheboro, NC

Change the Weather History Date:

Friday, March 14, 2014

  Actual Average Record
Temperature  
Mean Temperature 42 °F -  
Max Temperature 60 °F 63 °F 85 °F (1990)
Min Temperature 23 °F 40 °F 19 °F (1993)
Degree Days  
Heating Degree Days 24    
Moisture  
Dew Point 15 °F    
Average Humidity 38    
Maximum Humidity 77    
Minimum Humidity 15    
Precipitation  
Precipitation 0.00 in - - ()
Sea Level Pressure  
Sea Level Pressure 30.23 in    
Wind  
Wind Speed 3 mph (SSW)    
Max Wind Speed 17 mph    
Max Gust Speed 25 mph    
Visibility 10 miles    
Events      
Averages and records for this station are not official NWS values.
T = Trace of Precipitation, MM = Missing Value Source: NWS Daily Summary

Daily Weather History Graph

Daily Weather History Graph

Search for Another Location

Airport:

Trip Planner

Search our weather history database for the weather conditions in past years. The results will help you decide how hot, cold, wet, or windy it might be!

Date:

Astronomy

Mar. 14, 2014 Rise Set
Actual Time 7:31 AM EDT 7:26 PM EDT
Civil Twilight 7:06 AM EDT 7:51 PM EDT
Nautical Twilight 6:36 AM EDT 8:21 PM EDT
Astronomical Twilight 6:06 AM EDT 8:51 PM EDT
Moon 5:49 PM EDT (3/14) 6:07 AM EDT (3/14)
Length of Visible Light 12h 45m
Length of Day
11h 54m
Waxing Gibbous, 96% of the Moon is Illuminated
Mar 14
Waxing Gibbous
Mar 16
Full
Mar 23
Last Quarter
Mar 30
New
Apr 7
First Quarter

Hourly Weather History & Observations

Time (EDT) Temp. Windchill Dew Point Humidity Pressure Visibility Wind Dir Wind Speed Gust Speed Precip Events Conditions
12:15 AM 30.0 °F - 17.1 °F 59% 30.25 in 10.0 mi Calm Calm - N/A   Clear
12:35 AM 29.3 °F - 14.4 °F 54% 30.25 in 10.0 mi Calm Calm - N/A   Clear
12:55 AM 28.9 °F - 13.5 °F 52% 30.25 in 10.0 mi Calm Calm - N/A   Clear
1:15 AM 29.1 °F - 13.1 °F 51% 30.25 in 10.0 mi Calm Calm - N/A   Clear
1:35 AM 28.6 °F - 13.3 °F 53% 30.26 in 10.0 mi Calm Calm - N/A   Clear
1:55 AM 28.4 °F - 12.6 °F 52% 30.26 in 10.0 mi Calm Calm - N/A   Clear
2:15 AM 28.4 °F - 12.7 °F 52% 30.26 in 10.0 mi Calm Calm - N/A   Clear
2:35 AM 28.0 °F - 12.9 °F 53% 30.26 in 10.0 mi Calm Calm - N/A   Clear
2:55 AM 27.9 °F - 12.7 °F 53% 30.26 in 10.0 mi Calm Calm - N/A   Clear
3:15 AM 28.0 °F - 13.6 °F 55% 30.26 in 10.0 mi Calm Calm - N/A   Clear
3:35 AM 27.5 °F - 13.5 °F 56% 30.25 in 10.0 mi Calm Calm - N/A   Clear
3:55 AM 27.7 °F - 13.8 °F 56% 30.25 in 10.0 mi Calm Calm - N/A   Clear
4:15 AM 25.9 °F - 16.3 °F 67% 30.26 in 10.0 mi Calm Calm - N/A   Clear
4:35 AM 26.6 °F - 13.8 °F 59% 30.26 in 10.0 mi Calm Calm - N/A   Clear
4:55 AM 25.7 °F - 16.0 °F 67% 30.27 in 10.0 mi Calm Calm - N/A   Clear
5:15 AM 25.5 °F - 17.1 °F 70% 30.27 in 10.0 mi Calm Calm - N/A   Clear
5:35 AM 26.2 °F - 15.4 °F 64% 30.28 in 10.0 mi Calm Calm - N/A   Clear
5:55 AM 24.6 °F - 16.3 °F 71% 30.29 in 10.0 mi Calm Calm - N/A   Clear
6:15 AM 25.5 °F - 16.3 °F 68% 30.29 in 10.0 mi Calm Calm - N/A   Clear
6:35 AM 24.8 °F - 17.4 °F 74% 30.30 in 10.0 mi Calm Calm - N/A   Clear
6:55 AM 24.3 °F - 18.1 °F 77% 30.30 in 10.0 mi Calm Calm - N/A   Clear
7:15 AM 24.6 °F - 16.3 °F 71% 30.31 in 10.0 mi Calm Calm - N/A   Clear
7:35 AM 23.9 °F - 16.5 °F 73% 30.31 in 10.0 mi Calm Calm - N/A   Clear
7:55 AM 23.7 °F - 14.4 °F 67% 30.32 in 10.0 mi Calm Calm - N/A   Clear
8:15 AM 24.8 °F - 17.2 °F 73% 30.32 in 10.0 mi Calm Calm - N/A   Clear
8:35 AM 26.2 °F - 18.1 °F 71% 30.32 in 10.0 mi Calm Calm - N/A   Clear
8:55 AM 28.0 °F - 18.7 °F 68% 30.33 in 10.0 mi Calm Calm - N/A   Clear
9:15 AM 31.8 °F - 21.9 °F 67% 30.33 in 10.0 mi Calm Calm - N/A   Clear
9:35 AM 36.7 °F - 15.1 °F 41% 30.34 in 10.0 mi Calm Calm - N/A   Clear
9:55 AM 39.4 °F - 12.0 °F 33% 30.33 in 10.0 mi Calm Calm - N/A   Clear
10:15 AM 41.9 °F 39.0 °F 10.6 °F 28% 30.32 in 10.0 mi SSW 4.6 mph - N/A   Clear
10:35 AM 43.7 °F 40.3 °F 10.8 °F 26% 30.33 in 10.0 mi SW 5.8 mph - N/A   Clear
10:55 AM 44.8 °F - 10.2 °F 25% 30.33 in 10.0 mi Calm Calm - N/A   Clear
11:15 AM 46.6 °F - 10.8 °F 23% 30.33 in 10.0 mi SW 8.1 mph - N/A   Clear
11:35 AM 48.0 °F - 8.6 °F 20% 30.33 in 10.0 mi SW 10.4 mph - N/A   Clear
11:55 AM 48.6 °F - 7.5 °F 19% 30.33 in 10.0 mi SSW 11.5 mph 17.3 mph N/A   Clear
12:15 PM 49.3 °F - 6.8 °F 18% 30.32 in 10.0 mi SSW 6.9 mph - N/A   Clear
12:35 PM 50.7 °F - 7.5 °F 17% 30.32 in 10.0 mi South 3.5 mph - N/A   Clear
12:55 PM 52.2 °F - 7.9 °F 17% 30.31 in 10.0 mi SSW 11.5 mph - N/A   Clear
1:15 PM 53.2 °F - 8.8 °F 17% 30.30 in 10.0 mi South 10.4 mph - N/A   Clear
1:35 PM 53.8 °F - 9.9 °F 17% 30.29 in 10.0 mi SSW 11.5 mph 16.1 mph N/A   Clear
1:55 PM 54.9 °F - 11.5 °F 18% 30.27 in 10.0 mi South 6.9 mph - N/A   Clear
2:15 PM 55.6 °F - 10.4 °F 17% 30.26 in 10.0 mi South 13.8 mph 17.3 mph N/A   Clear
2:35 PM 56.1 °F - 10.6 °F 16% 30.24 in 10.0 mi SSW 10.4 mph 20.7 mph N/A   Clear
2:55 PM 57.0 °F - 9.1 °F 15% 30.22 in 10.0 mi SSW 13.8 mph 21.9 mph N/A   Clear
3:15 PM 57.7 °F - 10.9 °F 16% 30.21 in 10.0 mi SSW 15.0 mph 21.9 mph N/A   Clear
3:35 PM 58.5 °F - 11.3 °F 16% 30.19 in 10.0 mi South 11.5 mph 16.1 mph N/A   Clear
3:55 PM 59.0 °F - 12.2 °F 16% 30.18 in 10.0 mi SSW 10.4 mph 17.3 mph N/A   Clear
4:15 PM 59.4 °F - 12.4 °F 16% 30.17 in 10.0 mi SSW 10.4 mph 16.1 mph N/A   Clear
4:35 PM 59.9 °F - 13.3 °F 16% 30.17 in 10.0 mi SW 15.0 mph 21.9 mph N/A   Clear
4:55 PM 60.6 °F - 14.4 °F 16% 30.15 in 10.0 mi South 13.8 mph - N/A   Clear
5:15 PM 59.7 °F - 14.4 °F 17% 30.15 in 10.0 mi SSW 17.3 mph 25.3 mph N/A   Clear
5:35 PM 59.0 °F - 14.7 °F 18% 30.14 in 10.0 mi SSW 13.8 mph 17.3 mph N/A   Clear
5:55 PM 58.8 °F - 15.4 °F 18% 30.13 in 10.0 mi South 10.4 mph - N/A   Clear
6:15 PM 59.2 °F - 15.8 °F 18% 30.12 in 10.0 mi South 15.0 mph 20.7 mph N/A   Clear
6:35 PM 59.0 °F - 16.7 °F 19% 30.12 in 10.0 mi South 11.5 mph 23.0 mph N/A   Clear
6:55 PM 59.2 °F - 17.8 °F 20% 30.12 in 10.0 mi South 10.4 mph 16.1 mph N/A   Clear
7:15 PM 58.1 °F - 17.6 °F 21% 30.12 in 10.0 mi South 10.4 mph - N/A   Clear
7:35 PM 57.4 °F - 17.2 °F 21% 30.13 in 10.0 mi Calm Calm - N/A   Clear
7:55 PM 56.8 °F - 17.4 °F 21% 30.13 in 10.0 mi South 6.9 mph - N/A   Clear
8:15 PM 56.5 °F - 17.6 °F 22% 30.13 in 10.0 mi South 5.8 mph - N/A   Clear
8:35 PM 56.1 °F - 18.5 °F 23% 30.12 in 10.0 mi SSE 4.6 mph - N/A   Clear
8:55 PM 55.9 °F - 18.3 °F 23% 30.12 in 10.0 mi South 10.4 mph - N/A   Clear
9:15 PM 55.4 °F - 18.7 °F 24% 30.12 in 10.0 mi Calm Calm - N/A   Clear
9:35 PM 54.9 °F - 19.2 °F 25% 30.12 in 10.0 mi South 8.1 mph - N/A   Clear
9:55 PM 54.7 °F - 19.4 °F 25% 30.12 in 10.0 mi South 3.5 mph - N/A   Clear
10:15 PM 54.3 °F - 20.1 °F 26% 30.12 in 10.0 mi South 3.5 mph - N/A   Clear
10:40 PM 54.0 °F - 20.8 °F 27% 30.12 in 10.0 mi South 10.4 mph - N/A   Clear
10:55 PM 53.6 °F - 21.9 °F 29% 30.12 in 10.0 mi SSW 10.4 mph - N/A   Clear
11:15 PM 53.6 °F - 22.6 °F 30% 30.12 in 10.0 mi South 12.7 mph - N/A   Clear
11:35 PM 53.2 °F - 23.7 °F 32% 30.11 in 10.0 mi South 11.5 mph 17.3 mph N/A   Clear
11:55 PM 53.1 °F - 24.4 °F 33% 30.12 in 10.0 mi SSW 11.5 mph 18.4 mph N/A   Clear